Weather History for Chester, CT

Change the Weather History Date:

Monday, February 11, 2013

  Actual Average (KHVN) Record (KHVN)
Temperature  
Mean Temperature 38 °F -  
Max Temperature 46 °F 37 °F 27 °F (2014)
Min Temperature 30 °F 24 °F 6 °F (2014)
Degree Days  
Heating Degree Days 27    
Moisture  
Dew Point 37 °F    
Average Humidity 94    
Maximum Humidity 100    
Minimum Humidity 64    
Precipitation  
Precipitation 0.89 in - - ()
Sea Level Pressure  
Sea Level Pressure 29.94 in    
Wind  
Wind Speed 5 mph (SSW)    
Max Wind Speed 12 mph    
Max Gust Speed 18 mph    
Visibility 4 miles    
Events Fog , Rain    
Averages and records for this station are not official NWS values.
T = Trace of Precipitation, MM = Missing Value Source: NWS Daily Summary

Daily Weather History Graph

Daily Weather History Graph

Search for Another Location

Airport:

Trip Planner

Search our weather history database for the weather conditions in past years. The results will help you decide how hot, cold, wet, or windy it might be!

Date:

Astronomy

Feb. 11, 2013 Rise Set
Actual Time 6:49 AM EST 5:19 PM EST
Civil Twilight 6:21 AM EST 5:47 PM EST
Nautical Twilight 5:48 AM EST 6:20 PM EST
Astronomical Twilight 5:16 AM EST 6:52 PM EST
Moon 7:11 AM EST (2/11) 7:14 PM EST (2/11)
Length of Visible Light 11h 26m
Length of Day
10h 29m
Waxing Crescent, 3% of the Moon is Illuminated
Feb 11
Waxing Crescent
Feb 17
First Quarter
Feb 25
Full
Mar 4
Last Quarter
Mar 11
New

Hourly Weather History & Observations

Time (EST) Temp. Windchill Dew Point Humidity Pressure Visibility Wind Dir Wind Speed Gust Speed Precip Events Conditions
12:15 AM 30.2 °F 26.7 °F 21.2 °F 69% 30.32 in 10.0 mi SSW 3.5 mph - N/A   Clear
12:35 AM 30.2 °F 25.4 °F 21.2 °F 69% 30.31 in 10.0 mi SSW 4.6 mph - N/A   Partly Cloudy
12:55 AM 32.0 °F 27.5 °F 21.2 °F 64% 30.31 in 10.0 mi SSW 4.6 mph - N/A   Partly Cloudy
1:15 AM 32.0 °F 27.5 °F 23.0 °F 69% 30.31 in 10.0 mi SSW 4.6 mph - N/A   Clear
1:35 AM 32.0 °F 28.7 °F 23.0 °F 69% 30.29 in 10.0 mi SSW 3.5 mph - N/A   Clear
1:55 AM 32.0 °F 27.5 °F 24.8 °F 75% 30.29 in 10.0 mi SSW 4.6 mph - N/A   Clear
2:15 AM 32.0 °F 27.5 °F 26.6 °F 80% 30.28 in 10.0 mi South 4.6 mph - N/A   Clear
2:35 AM 32.0 °F 27.5 °F 26.6 °F 80% 30.26 in 10.0 mi South 4.6 mph - N/A   Clear
2:55 AM 32.0 °F 28.7 °F 26.6 °F 80% 30.25 in 10.0 mi South 3.5 mph - N/A   Clear
3:15 AM 30.2 °F 26.7 °F 26.6 °F 86% 30.24 in 10.0 mi SSE 3.5 mph - N/A   Clear
3:35 AM 30.2 °F 26.7 °F 24.8 °F 80% 30.22 in 10.0 mi SSE 3.5 mph - N/A   Clear
3:55 AM 32.0 °F 26.4 °F 28.4 °F 87% 30.23 in 10.0 mi South 5.8 mph - N/A   Clear
4:15 AM 32.0 °F 27.5 °F 28.4 °F 87% 30.23 in 10.0 mi South 4.6 mph - N/A   Clear
4:35 AM 32.0 °F 28.7 °F 28.4 °F 87% 30.22 in 10.0 mi South 3.5 mph - N/A   Clear
4:55 AM 32.0 °F 27.5 °F 28.4 °F 87% 30.21 in 10.0 mi South 4.6 mph - N/A   Clear
5:15 AM 32.0 °F - 30.2 °F 93% 30.20 in 10.0 mi Calm Calm - N/A   Clear
5:35 AM 30.2 °F 26.7 °F 26.6 °F 86% 30.19 in 10.0 mi ESE 3.5 mph - N/A   Partly Cloudy
5:55 AM 32.0 °F - 28.4 °F 87% 30.19 in 9.0 mi Calm Calm - N/A Rain Light Rain
6:15 AM 32.0 °F - 28.4 °F 87% 30.18 in 7.0 mi Calm Calm - N/A Rain Light Rain
6:35 AM 32.0 °F 28.7 °F 30.2 °F 93% 30.15 in 3.0 mi SSE 3.5 mph - 0.01 in Rain Light Rain
6:55 AM 32.0 °F 28.7 °F 32.0 °F 100% 30.15 in 5.0 mi SSE 3.5 mph - 0.03 in Rain Light Rain
7:15 AM 32.0 °F 28.7 °F 32.0 °F 100% 30.14 in 5.0 mi SSE 3.5 mph - N/A Rain Light Rain
7:35 AM 33.8 °F 30.8 °F 32.0 °F 93% 30.11 in 5.0 mi SSE 3.5 mph - 0.02 in Rain Light Rain
7:55 AM 33.8 °F 28.6 °F 33.8 °F 100% 30.11 in 5.0 mi SSE 5.8 mph - 0.02 in Rain Light Rain
8:15 AM 35.6 °F 30.7 °F 35.6 °F 100% 30.09 in 2.5 mi SSE 5.8 mph - 0.01 in Rain Light Rain
8:35 AM 37.4 °F 33.8 °F 37.4 °F 100% 30.06 in 3.0 mi SSE 4.6 mph - 0.02 in Rain Light Rain
8:55 AM 37.4 °F 32.8 °F 37.4 °F 100% 30.05 in 1.0 mi SSE 5.8 mph - 0.06 in Rain Rain
9:15 AM 39.2 °F 34.2 °F 39.2 °F 100% 30.03 in 1.0 mi SSE 6.9 mph - 0.03 in Rain Rain
9:35 AM 39.2 °F 33.6 °F 39.2 °F 100% 30.00 in 0.8 mi SE 8.1 mph - 0.12 in Rain Rain
9:55 AM 39.2 °F 33.0 °F 39.2 °F 100% 29.98 in 0.2 mi SSE 9.2 mph - 0.17 in Rain Rain
10:15 AM 41.0 °F 35.2 °F 41.0 °F 100% 29.97 in 0.5 mi SSE 9.2 mph - 0.06 in   Overcast
10:35 AM 42.8 °F 37.0 °F 42.8 °F 100% 29.95 in 0.5 mi South 10.4 mph - 0.18 in   Overcast
10:55 AM 44.6 °F 39.7 °F 44.6 °F 100% 29.94 in 0.8 mi South 9.2 mph - 0.30 in   Overcast
11:15 AM 44.6 °F 40.7 °F 44.6 °F 100% 29.94 in 1.0 mi SSW 6.9 mph - 0.07 in   Overcast
11:35 AM 44.6 °F 39.7 °F 44.6 °F 100% 29.92 in 1.2 mi SW 9.2 mph - 0.18 in Rain Rain
11:55 AM 44.6 °F 39.2 °F 44.6 °F 100% 29.90 in 1.8 mi SW 10.4 mph - 0.24 in   Overcast
12:15 PM 46.4 °F 41.9 °F 46.4 °F 100% 29.88 in 0.8 mi SW 9.2 mph 17.3 mph 0.01 in Rain Light Rain
12:35 PM 46.4 °F 41.1 °F 46.4 °F 100% 29.85 in 1.0 mi SSW 11.5 mph 18.4 mph 0.06 in Rain Light Rain
12:55 PM 46.4 °F 41.9 °F 46.4 °F 100% 29.83 in 0.8 mi SW 9.2 mph 18.4 mph 0.07 in Rain Light Rain
1:15 PM 46.4 °F 42.9 °F 46.4 °F 100% 29.82 in 0.2 mi SW 6.9 mph 16.1 mph N/A Rain Light Rain
1:35 PM 44.6 °F 39.2 °F 44.6 °F 100% 29.80 in 0.2 mi SW 10.4 mph - N/A Fog Fog
1:55 PM 44.6 °F 39.7 °F 44.6 °F 100% 29.80 in 0.2 mi SW 9.2 mph 17.3 mph N/A Fog Fog
2:15 PM 44.6 °F 40.2 °F 44.6 °F 100% 29.80 in 0.2 mi SW 8.1 mph 17.3 mph N/A Fog Fog
2:35 PM 44.6 °F 39.7 °F 44.6 °F 100% 29.78 in 0.2 mi SW 9.2 mph - N/A Fog Fog
2:55 PM 44.6 °F 40.2 °F 44.6 °F 100% 29.76 in 0.2 mi WSW 8.1 mph - N/A Fog Fog
3:15 PM 44.6 °F 39.7 °F 44.6 °F 100% 29.76 in 0.2 mi SW 9.2 mph - N/A Fog Fog
3:35 PM 44.6 °F 40.2 °F 44.6 °F 100% 29.75 in 0.2 mi SW 8.1 mph - N/A Fog Fog
3:55 PM 44.6 °F 40.2 °F 44.6 °F 100% 29.74 in 0.2 mi WSW 8.1 mph - N/A Fog Fog
4:15 PM 44.6 °F 40.7 °F 44.6 °F 100% 29.73 in 0.2 mi SW 6.9 mph - N/A Fog Fog
5:15 PM 42.8 °F 39.3 °F 42.8 °F 100% 29.72 in 0.2 mi WSW 5.8 mph - N/A Fog Fog
5:35 PM 42.8 °F 41.1 °F 42.8 °F 100% 29.71 in 0.2 mi WSW 3.5 mph - N/A Fog Fog
5:55 PM 42.8 °F 40.1 °F 42.8 °F 100% 29.70 in 0.2 mi SW 4.6 mph - N/A Fog Fog
6:15 PM 42.8 °F 41.1 °F 42.8 °F 100% 29.69 in 0.2 mi SW 3.5 mph - N/A Fog Fog
6:35 PM 42.8 °F 41.1 °F 42.8 °F 100% 29.69 in 0.2 mi SW 3.5 mph - N/A Fog Fog
6:55 PM 42.8 °F 41.1 °F 42.8 °F 100% 29.67 in 0.2 mi SW 3.5 mph - N/A Fog Fog
7:15 PM 42.8 °F - 42.8 °F 100% 29.67 in 0.2 mi Calm Calm - N/A Fog Fog
7:35 PM 42.8 °F - 42.8 °F 100% 29.67 in 0.2 mi Calm Calm - N/A Fog Fog
7:55 PM 42.8 °F - 42.8 °F 100% 29.66 in 0.2 mi Calm Calm - N/A Fog Fog
8:15 PM 42.8 °F - 42.8 °F 100% 29.66 in 0.2 mi Calm Calm - N/A Fog Fog
8:35 PM 42.8 °F - 42.8 °F 100% 29.66 in 0.2 mi Calm Calm - N/A Fog Fog
8:55 PM 42.8 °F 41.1 °F 42.8 °F 100% 29.66 in 0.5 mi NW 3.5 mph - N/A Fog Fog
9:15 PM 42.8 °F 39.3 °F 42.8 °F 100% 29.66 in 0.5 mi WNW 5.8 mph - N/A Fog Fog
9:35 PM 42.8 °F 39.3 °F 42.8 °F 100% 29.65 in 2.5 mi West 5.8 mph - N/A   Overcast
9:55 PM 42.8 °F 39.3 °F 42.8 °F 100% 29.65 in 10.0 mi West 5.8 mph - N/A   Scattered Clouds
10:15 PM 42.8 °F 37.5 °F 42.8 °F 100% 29.64 in 10.0 mi West 9.2 mph - N/A   Clear
10:35 PM 42.8 °F 40.1 °F 42.8 °F 100% 29.66 in 10.0 mi NW 4.6 mph - N/A   Clear
10:55 PM 41.0 °F 37.1 °F 41.0 °F 100% 29.67 in 10.0 mi WNW 5.8 mph - N/A   Mostly Cloudy
11:15 PM 41.0 °F 38.0 °F 41.0 °F 100% 29.67 in 9.0 mi NW 4.6 mph - N/A   Overcast
11:35 PM 42.8 °F 38.0 °F 42.8 °F 100% 29.67 in 10.0 mi NW 8.1 mph - N/A   Overcast
11:55 PM 41.0 °F 37.1 °F 41.0 °F 100% 29.67 in 10.0 mi NNW 5.8 mph 17.3 mph N/A   Overcast